�������l�o���
Date,Time,MP-1(��Sv/h),MP-2(��Sv/h),MP-3(��Sv/h),MP-4(��Sv/h),MP-5(��Sv/h),MP-6(��Sv/h),MP-7(��Sv/h),MP-8(��Sv/h),����,����(m/s),���J
2023/07/06,00:00,0.529,0.804,0.489,0.971,0.703,0.325,0.566,0.533,��,7.7,��
2023/07/06,00:10,0.528,0.803,0.491,0.968,0.705,0.326,0.567,0.532,��,6.9,��
2023/07/06,00:20,0.527,0.803,0.491,0.969,0.703,0.324,0.565,0.533,��,6.9,�L
2023/07/06,00:30,0.526,0.803,0.487,0.969,0.703,0.323,0.566,0.532,��,6.8,�L
2023/07/06,00:40,0.526,0.802,0.487,0.967,0.703,0.325,0.566,0.534,��,6.3,��
2023/07/06,00:50,0.525,0.801,0.488,0.968,0.702,0.323,0.565,0.533,��,6.7,��
2023/07/06,01:00,0.524,0.802,0.487,0.966,0.703,0.323,0.564,0.532,��쓌,7.1,��
2023/07/06,01:10,0.524,0.801,0.486,0.965,0.702,0.323,0.566,0.534,��,7.7,�L
2023/07/06,01:20,0.524,0.802,0.487,0.966,0.703,0.323,0.566,0.533,��,7.8,��
2023/07/06,01:30,0.525,0.800,0.487,0.968,0.703,0.322,0.565,0.532,��,8.1,��
2023/07/06,01:40,0.523,0.800,0.486,0.968,0.701,0.323,0.567,0.533,��,8.2,��
2023/07/06,01:50,0.524,0.802,0.486,0.967,0.700,0.324,0.567,0.533,��,8.1,��
2023/07/06,02:00,0.525,0.799,0.486,0.967,0.701,0.323,0.565,0.531,��쐼,7.8,��
2023/07/06,02:10,0.524,0.802,0.488,0.966,0.704,0.323,0.566,0.532,��,8.4,��
2023/07/06,02:20,0.525,0.799,0.487,0.967,0.701,0.322,0.567,0.533,��,7.8,�L
2023/07/06,02:30,0.522,0.802,0.487,0.966,0.701,0.323,0.566,0.533,��,8.0,��
2023/07/06,02:40,0.524,0.800,0.487,0.967,0.703,0.322,0.566,0.535,��,8.5,�L
2023/07/06,02:50,0.524,0.800,0.486,0.967,0.702,0.322,0.568,0.533,��,7.7,�L
2023/07/06,03:00,0.524,0.801,0.488,0.967,0.701,0.324,0.566,0.534,��,7.6,�L
2023/07/06,03:10,0.525,0.801,0.487,0.966,0.703,0.323,0.567,0.534,��,8.1,��
2023/07/06,03:20,0.522,0.800,0.487,0.967,0.703,0.322,0.569,0.532,��,11.3,��
2023/07/06,03:30,0.523,0.800,0.487,0.967,0.702,0.323,0.567,0.533,��,13.5,��
2023/07/06,03:40,0.524,0.801,0.486,0.967,0.703,0.323,0.567,0.533,��,10.2,��
2023/07/06,03:50,0.524,0.801,0.486,0.967,0.702,0.322,0.567,0.532,��,11.1,��
2023/07/06,04:00,0.524,0.800,0.487,0.967,0.703,0.323,0.567,0.534,��쐼,9.7,��
2023/07/06,04:10,0.524,0.800,0.487,0.966,0.704,0.323,0.567,0.533,��쐼,7.4,��
2023/07/06,04:20,0.523,0.801,0.488,0.967,0.703,0.322,0.567,0.533,��,7.1,��
2023/07/06,04:30,0.525,0.805,0.488,0.966,0.702,0.324,0.567,0.534,��,6.0,��
2023/07/06,04:40,0.523,0.800,0.488,0.967,0.706,0.324,0.566,0.534,��,5.6,��
2023/07/06,04:50,0.525,0.804,0.487,0.966,0.705,0.323,0.567,0.534,��,6.7,��
2023/07/06,05:00,0.525,0.801,0.487,0.967,0.705,0.322,0.567,0.535,��,8.1,��
2023/07/06,05:10,0.525,0.802,0.487,0.965,0.704,0.323,0.566,0.533,��,9.2,��
2023/07/06,05:20,0.525,0.802,0.488,0.968,0.706,0.323,0.566,0.535,��,8.9,��
2023/07/06,05:30,0.523,0.802,0.488,0.968,0.704,0.323,0.566,0.533,��,9.3,��
2023/07/06,05:40,0.525,0.802,0.486,0.967,0.705,0.322,0.565,0.533,��,9.0,��
2023/07/06,05:50,0.525,0.802,0.487,0.968,0.705,0.323,0.567,0.533,��,7.4,��
2023/07/06,06:00,0.525,0.803,0.488,0.968,0.704,0.323,0.566,0.535,��,6.9,��
2023/07/06,06:10,0.526,0.806,0.488,0.967,0.705,0.323,0.566,0.534,��,8.4,��
2023/07/06,06:20,0.526,0.804,0.487,0.970,0.704,0.324,0.568,0.534,��,10.8,��
2023/07/06,06:30,0.526,0.805,0.488,0.966,0.702,0.324,0.567,0.533,��,7.7,��
2023/07/06,06:40,0.527,0.804,0.486,0.967,0.703,0.324,0.567,0.534,��,4.1,��
2023/07/06,06:50,0.526,0.801,0.488,0.967,0.707,0.322,0.567,0.534,��,4.2,��
2023/07/06,07:00,0.527,0.802,0.489,0.968,0.705,0.321,0.566,0.534,��,5.2,��
2023/07/06,07:10,0.525,0.803,0.488,0.968,0.706,0.323,0.566,0.533,��,5.1,��
2023/07/06,07:20,0.527,0.803,0.488,0.967,0.706,0.323,0.566,0.533,��,5.7,��
2023/07/06,07:30,0.528,0.805,0.492,0.965,0.706,0.322,0.567,0.533,��,8.3,��
2023/07/06,07:40,0.526,0.805,0.490,0.969,0.705,0.323,0.567,0.533,��,6.8,��
2023/07/06,07:50,0.527,0.806,0.490,0.966,0.706,0.323,0.565,0.532,��,7.6,��
2023/07/06,08:00,0.528,0.807,0.491,0.967,0.707,0.322,0.565,0.531,��,6.2,��
2023/07/06,08:10,0.528,0.806,0.489,0.967,0.706,0.322,0.566,0.530,��쓌,8.0,��
2023/07/06,08:20,0.528,0.806,0.490,0.969,0.708,0.324,0.567,0.532,��쓌,8.8,��
2023/07/06,08:30,0.528,0.806,0.490,0.969,0.708,0.325,0.565,0.532,��쓌,10.3,��
2023/07/06,08:40,0.528,0.804,0.490,0.968,0.706,0.325,0.566,0.532,��쓌,6.4,��
2023/07/06,08:50,0.528,0.807,0.488,0.968,0.709,0.323,0.565,0.532,��,5.2,��
2023/07/06,09:00,0.528,0.804,0.489,0.970,0.709,0.323,0.566,0.532,��쓌,5.4,��
2023/07/06,09:10,0.528,0.806,0.490,0.969,0.709,0.324,0.567,0.532,��쓌,5.5,��
2023/07/06,09:20,0.529,0.806,0.490,0.970,0.707,0.325,0.566,0.533,��,4.7,��
2023/07/06,09:30,0.528,0.808,0.491,0.971,0.706,0.325,0.565,0.532,��쓌,7.5,��
2023/07/06,09:40,0.527,0.807,0.493,0.970,0.708,0.325,0.566,0.532,��쓌,8.5,��
2023/07/06,09:50,0.528,0.807,0.491,0.970,0.709,0.323,0.567,0.532,��쓌,6.5,��
2023/07/06,10:00,0.528,0.808,0.491,0.971,0.710,0.323,0.568,0.533,��쓌,6.7,��
2023/07/06,10:10,0.523,0.808,0.492,0.971,0.710,0.324,0.567,0.534,��쓌,7.3,��
2023/07/06,10:20,0.525,0.808,0.491,0.972,0.710,0.324,0.567,0.532,��쓌,7.2,��
2023/07/06,10:30,0.526,0.809,0.491,0.969,0.709,0.324,0.569,0.533,��쓌,6.7,��
2023/07/06,10:40,0.526,0.808,0.492,0.970,0.708,0.324,0.567,0.532,��쓌,6.2,��
2023/07/06,10:50,0.531,0.808,0.492,0.972,0.712,0.324,0.567,0.532,��쓌,6.7,��
2023/07/06,11:00,0.529,0.805,0.492,0.972,0.710,0.323,0.567,0.532,��쓌,7.3,��
2023/07/06,11:10,0.531,0.810,0.491,0.973,0.711,0.325,0.569,0.531,��쓌,9.5,��
2023/07/06,11:20,0.530,0.809,0.493,0.972,0.712,0.326,0.569,0.533,��쓌,9.3,��
2023/07/06,11:30,0.530,0.812,0.492,0.973,0.711,0.324,0.568,0.531,��쓌,8.4,��
2023/07/06,11:40,0.531,0.811,0.492,0.972,0.710,0.325,0.568,0.533,��쓌,8.9,��
2023/07/06,11:50,0.529,0.811,0.492,0.972,0.713,0.325,0.567,0.534,��쓌,6.8,��
2023/07/06,12:00,0.532,0.811,0.492,0.973,0.710,0.325,0.568,0.532,��쓌,7.6,��
2023/07/06,12:10,0.531,0.814,0.492,0.973,0.713,0.326,0.568,0.534,��쓌,6.9,��
2023/07/06,12:20,0.531,0.814,0.491,0.972,0.714,0.324,0.569,0.532,��쓌,8.0,��
2023/07/06,12:30,0.533,0.816,0.492,0.972,0.712,0.325,0.569,0.533,��쓌,8.2,��
2023/07/06,12:40,0.531,0.812,0.495,0.972,0.712,0.325,0.567,0.533,��쓌,8.9,��
2023/07/06,12:50,0.532,0.814,0.494,0.973,0.715,0.325,0.569,0.534,��쓌,10.2,��
2023/07/06,13:00,0.531,0.814,0.493,0.972,0.714,0.325,0.569,0.532,��쓌,8.2,��
2023/07/06,13:10,0.533,0.813,0.494,0.972,0.712,0.325,0.569,0.533,��쓌,9.2,��
2023/07/06,13:20,0.533,0.814,0.493,0.974,0.713,0.326,0.568,0.533,��쓌,7.1,��
2023/07/06,13:30,0.532,0.815,0.494,0.971,0.715,0.324,0.569,0.533,��쓌,7.4,��
2023/07/06,13:40,0.531,0.813,0.494,0.973,0.715,0.326,0.569,0.533,��쓌,7.7,��
2023/07/06,13:50,0.533,0.812,0.492,0.972,0.713,0.324,0.570,0.533,��쓌,7.8,��
2023/07/06,14:00,0.534,0.814,0.492,0.973,0.714,0.325,0.569,0.534,��쓌,8.3,��
2023/07/06,14:10,0.533,0.815,0.492,0.974,0.715,0.325,0.570,0.532,��쓌,6.1,��
2023/07/06,14:20,0.534,0.815,0.493,0.973,0.716,0.324,0.570,0.534,��쓌,6.7,��
2023/07/06,14:30,0.533,0.813,0.492,0.972,0.718,0.327,0.569,0.535,��쓌,7.0,��
2023/07/06,14:40,0.534,0.813,0.495,0.973,0.716,0.324,0.568,0.536,��쓌,7.3,��
2023/07/06,14:50,0.535,0.813,0.493,0.972,0.715,0.324,0.568,0.535,��쓌,6.6,��
2023/07/06,15:00,0.534,0.812,0.493,0.972,0.716,0.325,0.570,0.533,��쓌,5.6,��
2023/07/06,15:10,0.533,0.813,0.493,0.973,0.715,0.325,0.569,0.534,��쓌,4.2,��
2023/07/06,15:20,0.531,0.815,0.494,0.972,0.716,0.326,0.567,0.536,��쓌,3.9,��
2023/07/06,15:30,0.533,0.813,0.493,0.974,0.717,0.326,0.569,0.536,��쓌,4.7,��
2023/07/06,15:40,0.535,0.815,0.495,0.974,0.718,0.325,0.569,0.534,��쓌,4.7,��
2023/07/06,15:50,0.535,0.814,0.494,0.975,0.717,0.325,0.568,0.534,��쓌,4.6,��
2023/07/06,16:00,0.534,0.815,0.494,0.974,0.721,0.326,0.570,0.534,��쓌,4.6,��
2023/07/06,16:10,0.535,0.817,0.495,0.976,0.717,0.326,0.569,0.534,��쓌,5.4,��
2023/07/06,16:20,0.534,0.816,0.495,0.976,0.718,0.326,0.569,0.534,��쓌,5.6,��
2023/07/06,16:30,0.533,0.818,0.493,0.974,0.718,0.326,0.570,0.534,��쓌,4.8,��
2023/07/06,16:40,0.535,0.816,0.494,0.975,0.719,0.328,0.569,0.535,��,3.2,��
2023/07/06,16:50,0.535,0.816,0.494,0.976,0.718,0.327,0.569,0.533,��쓌,3.0,��
2023/07/06,17:00,0.534,0.816,0.495,0.976,0.718,0.328,0.568,0.537,��쓌,3.0,��
2023/07/06,17:10,0.534,0.816,0.494,0.977,0.716,0.326,0.569,0.534,��쓌,4.2,��
2023/07/06,17:20,0.534,0.816,0.495,0.976,0.717,0.328,0.568,0.534,��,3.8,��
2023/07/06,17:30,0.534,0.816,0.495,0.978,0.715,0.328,0.569,0.535,��,3.0,��
2023/07/06,17:40,0.534,0.816,0.495,0.977,0.717,0.328,0.569,0.535,��쓌,3.6,��
2023/07/06,17:50,0.535,0.815,0.493,0.976,0.716,0.329,0.569,0.534,��,3.5,��
2023/07/06,18:00,0.535,0.818,0.496,0.977,0.718,0.328,0.568,0.532,��쓌,4.1,��
2023/07/06,18:10,0.534,0.817,0.494,0.977,0.717,0.328,0.567,0.534,��,4.2,��
2023/07/06,18:20,0.534,0.817,0.493,0.978,0.717,0.327,0.568,0.534,��,4.4,��
2023/07/06,18:30,0.536,0.815,0.495,0.978,0.719,0.327,0.568,0.535,��,4.2,��
2023/07/06,18:40,0.534,0.813,0.493,0.975,0.717,0.327,0.568,0.534,��쓌,3.6,��
2023/07/06,18:50,0.534,0.818,0.494,0.976,0.719,0.326,0.567,0.534,��,3.8,��
2023/07/06,19:00,0.534,0.817,0.493,0.977,0.717,0.325,0.567,0.532,��,3.8,��
2023/07/06,19:10,0.535,0.817,0.494,0.977,0.718,0.326,0.568,0.535,��,2.6,��
2023/07/06,19:20,0.535,0.818,0.492,0.977,0.719,0.327,0.570,0.534,��쐼,2.0,��
2023/07/06,19:30,0.533,0.816,0.494,0.974,0.718,0.326,0.569,0.534,��쐼,2.0,��
2023/07/06,19:40,0.535,0.818,0.494,0.976,0.719,0.326,0.568,0.534,��쐼,2.3,��
2023/07/06,19:50,0.535,0.818,0.495,0.976,0.718,0.329,0.569,0.535,��쐼,1.5,��
2023/07/06,20:00,0.536,0.817,0.495,0.977,0.718,0.328,0.569,0.535,��쐼,1.2,��
2023/07/06,20:10,0.534,0.818,0.496,0.979,0.719,0.328,0.570,0.535,��,0.9,��
2023/07/06,20:20,0.535,0.819,0.494,0.978,0.718,0.327,0.570,0.535,��,1.7,��
2023/07/06,20:30,0.534,0.818,0.494,0.977,0.719,0.328,0.568,0.537,�쐼,1.5,��
2023/07/06,20:40,0.536,0.818,0.496,0.978,0.719,0.329,0.569,0.535,�쐼,1.7,��
2023/07/06,20:50,0.536,0.821,0.494,0.979,0.720,0.327,0.569,0.537,�쐼,1.4,��
2023/07/06,21:00,0.534,0.818,0.495,0.978,0.720,0.328,0.569,0.535,���쐼,1.9,��
2023/07/06,21:10,0.536,0.818,0.495,0.981,0.718,0.328,0.571,0.535,���쐼,1.2,��
2023/07/06,21:20,0.537,0.817,0.495,0.979,0.718,0.329,0.570,0.536,�쐼,0.8,��
2023/07/06,21:30,0.537,0.820,0.496,0.979,0.720,0.328,0.569,0.536,��,0.9,��
2023/07/06,21:40,0.537,0.819,0.496,0.979,0.720,0.327,0.570,0.536,��쐼,1.4,��
2023/07/06,21:50,0.535,0.819,0.495,0.982,0.719,0.328,0.571,0.536,�쐼,1.1,��
2023/07/06,22:00,0.536,0.819,0.497,0.980,0.717,0.328,0.570,0.536,�쐼,0.9,��
2023/07/06,22:10,0.536,0.818,0.495,0.978,0.718,0.329,0.570,0.535,���쐼,1.5,��
2023/07/06,22:20,0.537,0.819,0.495,0.978,0.718,0.328,0.572,0.536,��쐼,1.5,��
2023/07/06,22:30,0.537,0.818,0.496,0.980,0.721,0.328,0.570,0.537,��쐼,1.7,��
2023/07/06,22:40,0.534,0.819,0.496,0.979,0.721,0.328,0.572,0.536,�쐼,2.0,��
2023/07/06,22:50,0.536,0.821,0.495,0.980,0.721,0.327,0.572,0.536,���k��,2.3,��
2023/07/06,23:00,0.534,0.817,0.495,0.981,0.719,0.328,0.570,0.537,���k��,2.2,��
2023/07/06,23:10,0.537,0.819,0.495,0.980,0.720,0.328,0.569,0.537,�k��,4.1,��
2023/07/06,23:20,0.536,0.820,0.495,0.982,0.721,0.328,0.570,0.537,���k��,4.5,��
2023/07/06,23:30,0.535,0.817,0.497,0.981,0.721,0.330,0.571,0.535,���k��,3.6,��
2023/07/06,23:40,0.536,0.820,0.497,0.981,0.719,0.329,0.571,0.536,�k��,4.1,��
2023/07/06,23:50,0.536,0.819,0.497,0.981,0.720,0.328,0.571,0.535,�k��,3.6,��
